カタログに戻る

SL-8 DEB

運用中LEO
NORAD 21955·DEBRIS·🇷🇺 Russia

打ち上げ Feb 12, 1991 から Plesetsk Cosmodrome

Loading…

次のパス (今後24時間)

TLE

最新Source: Space-Track

元期: Sep 14, 2026, 06:04 UTC

1 21955U 91009CF  26257.25339192 -.00000158  00000-0 -15486-2 0  9999
2 21955  74.3082 342.4255 0162278 279.4830 108.0055 12.08387531566051

AllMySatでSL-8 DEBをリアルタイム追跡

Download on the App Store